SCP
0 0 0 0 0 0 0 0 0 0 0 0 0 0 0 0 0 0 0 0 0 0 0 0 0 0 0 0 0 0 0 0 0 0 0 0 0 0 0 0 0 0 0
0 0 0 0 0 0 0 0 0 0 0 0 0 0 0 0 0 0 0 0 0 0 0 0 0 0 0 0 0 0 0 0 0 0 0 0 0 0 0 0 0 0 0
0 0 0 0 0 0 0 0 0 0 0 0 0 0 0 0 0 0 0 0 0 0 0 0 0 0 0 0 0 0 0 0 0 0 0 0 0 0 0 0 0 0 0
0 0 0 0 0 0 0 0 0 0 0 0 0 0 0 0 0 0 0 0 0 0 0 0 0 0 0 0 0 0 0 0 0 0 0 0 0 0 0 0 0 0 0
0 0 0 0 0 0 0 0 0 0 0 0 0 0 0 0 0 0 0 0 0 0 0 0 0 0 0 0 0 0 0 0 0 0 0 0 0 0 0 0 0 0 0
0 0 0 0 0 0 0 0 0 0 0 0 0 0 0 0 0 0 0 0 0 0 0 0 0 0 0 0 0 0 0 0 0 0 0 0 0 0 0 0 0 0 0
0 0 0 0 0 0 0 0 0 0 0 0 0 0 0 0 0 0 0 0 0 0 0 0 0 0 0 0 0 0 0 0 0 0 0 0 0 0 0 0 0 0 0
0 0 0 0 0 0 0 0 0 0 0 0 0 0 0 0 0 0 0 0 0 0 0 0 0 0 0 0 0 0 0 0 0 0 0 0 0 0 0 0 0 0 0
0 0 0 0 0 0 0 0 0 0 0 0 0 0 0 0 0 0 0 0 0 0 0 0 0 0 0 0 0 0 0 0 0 0 0 0 0 0 0 0 0 0 0
0 0 0 0 0 0 0 0 0 0 0 0 0 0 0 0 0 0 0 0 0 0 0 0 0 0 0 0 0 0 0 0 0 0 0 0 0 0 0 0 0 0 0
0 0 0 0 0 0 0 0 0 0 0 0 0 0 0 0 0 0 0 0 0 0 0 0 0 0 0 0 0 0 0 0 0 0 0 0 0 0 0 0 0 0 0
0 0 0 0 0 0 0 0 0 0 0 0 0 0 0 0 0 0 0 0 0 0 0 0 0 0 0 0 0 0 0 0 0 0 0 0 0 0 0 0 0 0 0
0 0 0 0 0 0 0 0 0 0 0 0 0 0 0 0 0 0 0 0 0 0 0 0 0 0 0 0 0 0 0 0 0 0 0 0 0 0 0 0 0 0 0
0 0 0 0 0 0 0 0 0 0 0 0 0 0 0 0 0 0 0 0 0 0 0 0 0 0 0 0 0 0 0 0 0 0 0 0 0 0 0 0 0 0 0
0 0 0 0 0 0 0 0 0 0 0 0 0 0 0 0 0 0 0 0 0 0 0 0 0 0 0 0 0 0 0 0 0 0 0 0 0 0 0 0 0 0 0
0 0 0 0 0 0 0 0 0 0 0 0 0 0 0 0 0 0 0 0 0 0 0 0 0 0 0 0 0 0 0 0 0 0 0 0 0 0 0 0 0 0 0
0 0 -0 -0 0 0 0 0 0 0 0 0 0 0 0 0 0 0 0 0 0 0 0 0 0 0 0 0 0 0 0 0 0 0 0 0 0 0 0 0 0 0 0
-0 -0 -0 0 0 0 0 0 0 0 0 0 0 0 0 0 0 0 0 0 0 0 0 0 0 0 0 0 0 0 0 0 0 0 0 0 0 0 0 0 0 0 0
0 0 0 0 0 0 0 0 0 0 0 0 0 0 0 0 0 0 0 0 0 0 0 0 0 0 0 0 0 0 0 0 0 0 0 0 0 0 0 0 0 0 0
0 0 0 0 0 0 0 0 0 0 0 0 0 0 0 0 0 0 0 0 0 0 0 0 0 0 0 0 0 0 0 0 0 0 0 0 0 0 0 0 0 0 0
0 0 0 0 0 0 0 0 0 0 0 0 0 0 0 0 0 0 0 0 0 0 0 0 0 0 0 0 0 0 0 0 0 0 0 0 0 0 0 0 0 0 0
0 0 0 0 0 0 0 0 0 0 0 0 0 0 0 0 0 0 0 0 0 0 0 0 0 0 0 0 0 0 0 0 0 0 0 0 0 0 0 0 0 0 0
0 0 0 0 0 0 0 0 0 0 0 0 0 0 0 0 0 0 0 0 0 0 0 0 0 0 0 0 0 0 0 0 0 0 0 0 0 0 0 0 0 0 0
0 0 0 0 0 0 0 0 0 0 0 0 0 0 0 0 0 0 0 0 0 0 0 0 0 0 0 0 0 0 0 0 0 0 0 0 0 0 0 0 0 0 0
0 0 0 0 0 0 0 0 0 0 0 0 0 0 0 0 0 0 0 0 0 0 0 0 0 0 0 0 0 0 0 0 0 0 0 0 0 0 0 0 0 0 0
0 0 0 0 0 0 0 0 0 0 0 0 0 0 0 0 0 0 0 0 0 0 0 0 0 0 0 0 0 0 0 0 0 0 0 0 0 0 0 0 0 0 0
Wind_Speed_500mb
79 77 72 80 80 101 99 94 94 94 93 89 85 85 95 97 99 97 93 87 89 86 76 73 71 72 70 56 49 50 62 46 44 50 43 38 41 38 29 22 18 15 11
66 61 70 77 74 86 92 89 85 86 85 82 80 83 89 89 95 89 86 80 86 86 74 73 76 71 68 61 65 60 52 50 59 51 53 52 44 34 26 25 21 19 10
67 70 69 71 81 83 85 80 75 77 76 76 75 81 79 79 86 84 80 84 82 76 83 83 76 66 53 56 63 59 68 64 53 53 59 55 46 41 35 29 25 20 12
42 47 56 68 72 71 75 77 71 66 69 71 76 77 69 70 78 84 83 84 80 75 83 80 65 52 67 65 60 68 79 64 57 56 57 56 49 42 34 35 33 28 20
31 34 40 50 51 55 57 62 64 63 68 72 75 68 65 68 73 80 84 76 74 86 85 81 70 77 60 54 68 74 68 68 66 64 62 61 57 55 53 47 37 36 23
25 26 30 32 33 36 40 43 48 55 61 68 69 67 67 66 67 69 71 76 86 94 94 85 76 60 62 64 69 67 68 71 71 68 66 65 60 53 58 54 50 43 37
27 32 31 30 32 37 38 42 49 55 61 65 67 66 64 63 65 69 73 86 91 95 93 81 77 69 64 71 70 66 66 63 63 64 63 58 55 55 58 57 50 43 37
19 23 23 29 35 38 40 40 45 51 55 54 60 62 63 62 67 75 87 91 93 87 82 80 76 70 75 80 76 72 67 72 66 63 53 44 46 45 46 42 46 44 39
26 22 20 22 29 35 37 36 40 46 48 54 57 62 60 67 71 74 81 82 79 81 82 81 77 71 66 77 78 77 75 73 69 62 52 47 49 48 45 44 46 48 41
26 22 18 15 11 16 24 30 34 42 44 48 53 57 60 66 71 76 75 74 80 84 79 75 71 59 67 76 79 81 77 75 73 68 61 59 57 52 49 44 41 41 40
32 23 16 17 13 10 9 9 12 28 36 41 46 51 57 65 69 73 78 77 85 89 86 83 75 68 69 64 74 76 76 58 70 65 61 60 57 53 49 46 41 37 34
29 29 26 20 11 10 11 11 13 17 22 29 36 43 52 61 66 71 76 79 85 89 90 86 73 67 65 70 73 75 63 68 67 66 65 61 58 55 51 46 41 38 30
19 21 20 20 15 11 11 12 13 17 19 25 34 41 49 54 60 65 71 79 82 79 83 82 73 70 68 73 77 63 64 64 62 65 62 59 54 48 47 43 39 35 31
24 23 20 16 18 16 12 12 12 17 17 22 30 39 48 54 58 62 73 81 79 69 70 71 70 73 74 78 73 70 72 67 66 62 61 55 55 53 46 42 38 35 33
25 23 20 17 14 14 12 8 11 15 15 18 24 34 42 51 56 62 73 83 81 71 66 68 71 77 84 84 78 75 72 69 67 63 61 60 54 48 46 43 39 36 34
25 26 21 21 22 16 10 6 5 8 10 12 17 22 27 35 45 53 64 73 75 75 70 76 80 89 93 89 87 79 76 69 66 64 64 59 54 48 45 42 39 38 35
22 24 22 23 19 14 12 10 4 2 6 10 14 19 22 26 36 42 53 66 72 75 76 84 87 90 92 91 91 88 80 71 65 63 64 60 54 47 44 44 39 36 35
21 23 19 17 14 11 7 6 5 4 8 9 16 17 21 23 23 32 42 62 73 76 79 82 85 85 91 92 94 88 76 68 65 69 66 60 55 49 49 47 41 37 36
18 17 16 15 13 9 4 2 4 10 12 15 20 25 25 26 27 31 37 64 76 82 84 80 81 87 92 91 82 78 77 69 69 74 70 63 59 53 52 46 37 37 39
11 10 9 8 6 3 4 6 8 11 14 18 22 19 24 26 35 52 55 68 79 83 84 82 82 83 84 80 73 72 73 74 76 75 66 63 63 57 52 45 45 42 40
3 3 0 3 11 10 10 18 19 12 11 16 18 16 20 32 37 51 61 67 79 82 81 79 77 74 71 72 72 70 67 68 71 72 69 65 62 59 56 52 48 47 40
14 15 15 16 17 15 13 12 13 13 14 18 21 23 22 29 39 48 62 63 71 73 72 69 69 66 66 68 65 62 61 65 66 69 64 60 59 61 61 58 52 49 45
24 24 25 23 21 19 17 19 19 17 18 23 24 25 30 33 38 48 56 60 70 67 66 66 64 65 61 62 61 59 62 65 65 61 55 55 60 61 60 58 55 51 48
17 17 19 22 23 23 22 22 23 23 24 27 29 30 31 29 36 46 53 56 61 60 57 59 67 64 61 57 56 59 60 61 59 53 50 53 58 58 58 56 57 55 49
16 15 16 17 17 15 18 22 25 26 28 30 33 36 33 33 34 43 53 57 60 60 59 56 59 67 62 61 60 59 61 60 56 51 52 51 53 53 56 56 56 56 51
18 21 21 24 22 21 24 25 24 24 27 31 34 38 38 37 36 36 44 59 63 63 62 58 58 61 64 61 56 53 54 54 54 52 53 50 51 52 53 56 54 55 53
Wind_Direction_500mb
208 209 208 211 214 214 214 214 217 220 223 225 227 226 226 225 224 220 218 219 220 221 220 210 205 199 194 194 197 204 205 212 217 203 204 206 206 209 206 204 223 232 230
202 202 206 209 215 213 214 214 216 218 220 224 222 227 229 226 223 223 219 216 218 215 220 209 205 199 198 195 201 205 200 218 216 198 196 203 207 209 207 199 212 222 222
186 196 203 210 213 209 208 209 212 217 219 219 223 229 231 231 229 224 219 214 213 214 216 212 204 195 190 210 222 221 212 217 214 215 205 200 198 201 196 194 208 220 236
182 189 197 206 210 208 210 213 215 219 222 223 227 229 233 231 227 224 220 217 212 213 209 210 200 207 220 220 226 227 214 217 209 203 198 196 198 199 208 202 199 217 227
185 192 198 203 209 214 216 217 220 223 223 227 227 227 228 230 230 225 222 211 208 201 203 198 210 226 223 224 232 212 207 211 201 196 194 193 192 195 200 196 203 211 213
174 187 191 196 206 217 221 223 226 226 226 226 228 234 236 234 231 225 217 208 206 202 201 212 212 214 224 220 214 207 209 211 202 200 203 204 203 202 203 200 205 204 208
177 187 194 196 206 209 211 213 217 221 224 224 230 232 233 233 228 222 204 204 211 218 218 213 211 211 212 215 210 207 208 209 219 218 215 213 212 206 205 205 210 215 221
170 180 183 197 207 213 217 219 223 225 224 228 228 232 232 235 226 217 213 219 225 218 217 214 217 213 205 212 205 205 204 203 206 216 224 226 219 213 207 213 213 216 218
188 176 166 182 195 209 217 221 227 234 233 231 234 234 233 232 228 225 224 223 219 219 216 221 220 218 209 213 207 205 202 200 202 210 212 217 214 213 217 212 209 208 207
197 204 181 184 203 190 193 214 224 233 237 234 235 236 234 232 231 230 229 222 219 217 221 223 221 205 214 217 211 209 204 202 207 205 205 209 213 213 213 212 217 212 213
184 190 176 191 189 165 194 202 214 221 229 234 236 238 236 235 235 235 230 224 223 223 222 217 209 204 214 213 213 208 209 211 215 211 207 207 205 205 209 212 213 219 226
158 170 182 181 201 216 230 238 233 230 231 238 242 241 241 241 242 240 237 231 230 228 224 220 209 200 205 213 209 205 203 217 211 206 205 204 205 206 208 210 210 213 220
181 174 173 171 175 195 222 233 240 243 238 239 244 245 245 241 239 238 237 234 235 234 235 226 209 202 207 208 210 201 209 212 212 210 207 205 208 209 206 208 206 211 214
171 169 170 163 175 182 200 228 232 246 255 259 255 254 251 244 236 230 227 225 227 230 231 225 208 197 206 204 201 206 210 212 215 213 211 209 206 206 204 208 208 211 215
142 135 130 136 147 156 170 197 222 232 236 250 259 260 257 250 244 237 225 219 219 222 218 211 201 198 201 204 208 208 209 207 208 208 207 211 211 207 205 203 207 213 215
126 120 126 128 111 101 94 82 351 281 255 249 255 256 265 260 258 247 236 228 224 220 214 205 202 202 206 205 208 204 207 207 205 206 212 213 213 211 211 208 211 211 209
114 109 113 104 91 85 76 65 87 250 252 254 250 256 252 250 253 244 234 227 221 217 212 206 208 208 209 208 209 205 203 206 207 206 215 215 214 215 217 211 211 209 201
108 107 101 90 89 89 86 60 29 303 256 249 245 249 239 238 238 241 234 221 208 213 214 214 213 212 213 213 211 205 205 211 211 211 215 220 221 219 216 211 209 211 202
139 107 96 94 96 113 154 104 255 265 260 265 238 232 227 236 238 238 227 217 212 209 212 217 220 217 216 217 214 210 213 214 218 215 216 220 224 224 217 218 215 210 205
140 100 85 68 60 150 153 208 224 240 253 256 250 235 229 216 229 230 220 219 217 217 219 222 222 221 221 221 214 213 212 217 223 221 221 223 222 223 221 218 218 215 213
67 25 61 236 219 227 232 224 223 241 253 266 270 257 235 227 222 227 219 220 218 218 220 223 224 225 224 220 216 215 215 222 224 222 222 222 222 221 220 220 222 223 224
209 212 221 229 233 237 244 248 266 256 274 279 268 261 252 236 231 225 224 225 226 226 229 229 229 227 220 218 216 216 219 222 222 221 222 223 221 220 222 222 221 219 221
207 212 220 228 237 246 248 253 257 262 266 271 267 260 252 246 238 234 232 232 231 231 230 231 232 228 224 219 220 222 223 226 226 223 224 223 222 221 219 221 223 222 223
201 207 216 229 234 248 254 259 260 261 262 262 267 265 260 258 251 243 240 237 237 239 236 230 230 230 224 222 221 225 231 233 235 234 231 228 227 226 221 221 223 223 222
218 220 224 234 238 247 260 264 262 261 264 265 265 267 267 263 257 249 245 243 242 242 241 235 226 217 221 228 228 225 229 233 235 234 232 232 233 228 222 221 222 221 222
251 234 230 241 243 247 250 256 262 260 262 265 266 267 268 265 264 256 248 244 244 243 243 240 232 222 219 222 227 229 231 232 232 232 233 232 226 223 223 222 223 221 222
Wind_Speed_850mb
79 77 72 80 80 101 99 94 94 94 93 89 85 85 95 97 99 97 93 87 89 86 76 73 71 72 70 56 49 50 62 46 44 50 43 38 41 38 29 22 18 15 11
66 61 70 77 74 86 92 89 85 86 85 82 80 83 89 89 95 89 86 80 86 86 74 73 76 71 68 61 65 60 52 50 59 51 53 52 44 34 26 25 21 19 10
67 70 69 71 81 83 85 80 75 77 76 76 75 81 79 79 86 84 80 84 82 76 83 83 76 66 53 56 63 59 68 64 53 53 59 55 46 41 35 29 25 20 12
42 47 56 68 72 71 75 77 71 66 69 71 76 77 69 70 78 84 83 84 80 75 83 80 65 52 67 65 60 68 79 64 57 56 57 56 49 42 34 35 33 28 20
31 34 40 50 51 55 57 62 64 63 68 72 75 68 65 68 73 80 84 76 74 86 85 81 70 77 60 54 68 74 68 68 66 64 62 61 57 55 53 47 37 36 23
25 26 30 32 33 36 40 43 48 55 61 68 69 67 67 66 67 69 71 76 86 94 94 85 76 60 62 64 69 67 68 71 71 68 66 65 60 53 58 54 50 43 37
27 32 31 30 32 37 38 42 49 55 61 65 67 66 64 63 65 69 73 86 91 95 93 81 77 69 64 71 70 66 66 63 63 64 63 58 55 55 58 57 50 43 37
19 23 23 29 35 38 40 40 45 51 55 54 60 62 63 62 67 75 87 91 93 87 82 80 76 70 75 80 76 72 67 72 66 63 53 44 46 45 46 42 46 44 39
26 22 20 22 29 35 37 36 40 46 48 54 57 62 60 67 71 74 81 82 79 81 82 81 77 71 66 77 78 77 75 73 69 62 52 47 49 48 45 44 46 48 41
26 22 18 15 11 16 24 30 34 42 44 48 53 57 60 66 71 76 75 74 80 84 79 75 71 59 67 76 79 81 77 75 73 68 61 59 57 52 49 44 41 41 40
32 23 16 17 13 10 9 9 12 28 36 41 46 51 57 65 69 73 78 77 85 89 86 83 75 68 69 64 74 76 76 58 70 65 61 60 57 53 49 46 41 37 34
29 29 26 20 11 10 11 11 13 17 22 29 36 43 52 61 66 71 76 79 85 89 90 86 73 67 65 70 73 75 63 68 67 66 65 61 58 55 51 46 41 38 30
19 21 20 20 15 11 11 12 13 17 19 25 34 41 49 54 60 65 71 79 82 79 83 82 73 70 68 73 77 63 64 64 62 65 62 59 54 48 47 43 39 35 31
24 23 20 16 18 16 12 12 12 17 17 22 30 39 48 54 58 62 73 81 79 69 70 71 70 73 74 78 73 70 72 67 66 62 61 55 55 53 46 42 38 35 33
25 23 20 17 14 14 12 8 11 15 15 18 24 34 42 51 56 62 73 83 81 71 66 68 71 77 84 84 78 75 72 69 67 63 61 60 54 48 46 43 39 36 34
25 26 21 21 22 16 10 6 5 8 10 12 17 22 27 35 45 53 64 73 75 75 70 76 80 89 93 89 87 79 76 69 66 64 64 59 54 48 45 42 39 38 35
22 24 22 23 19 14 12 10 4 2 6 10 14 19 22 26 36 42 53 66 72 75 76 84 87 90 92 91 91 88 80 71 65 63 64 60 54 47 44 44 39 36 35
21 23 19 17 14 11 7 6 5 4 8 9 16 17 21 23 23 32 42 62 73 76 79 82 85 85 91 92 94 88 76 68 65 69 66 60 55 49 49 47 41 37 36
18 17 16 15 13 9 4 2 4 10 12 15 20 25 25 26 27 31 37 64 76 82 84 80 81 87 92 91 82 78 77 69 69 74 70 63 59 53 52 46 37 37 39
11 10 9 8 6 3 4 6 8 11 14 18 22 19 24 26 35 52 55 68 79 83 84 82 82 83 84 80 73 72 73 74 76 75 66 63 63 57 52 45 45 42 40
3 3 0 3 11 10 10 18 19 12 11 16 18 16 20 32 37 51 61 67 79 82 81 79 77 74 71 72 72 70 67 68 71 72 69 65 62 59 56 52 48 47 40
14 15 15 16 17 15 13 12 13 13 14 18 21 23 22 29 39 48 62 63 71 73 72 69 69 66 66 68 65 62 61 65 66 69 64 60 59 61 61 58 52 49 45
24 24 25 23 21 19 17 19 19 17 18 23 24 25 30 33 38 48 56 60 70 67 66 66 64 65 61 62 61 59 62 65 65 61 55 55 60 61 60 58 55 51 48
17 17 19 22 23 23 22 22 23 23 24 27 29 30 31 29 36 46 53 56 61 60 57 59 67 64 61 57 56 59 60 61 59 53 50 53 58 58 58 56 57 55 49
16 15 16 17 17 15 18 22 25 26 28 30 33 36 33 33 34 43 53 57 60 60 59 56 59 67 62 61 60 59 61 60 56 51 52 51 53 53 56 56 56 56 51
18 21 21 24 22 21 24 25 24 24 27 31 34 38 38 37 36 36 44 59 63 63 62 58 58 61 64 61 56 53 54 54 54 52 53 50 51 52 53 56 54 55 53
Wind_Direction_850mb
208 209 208 211 214 214 214 214 217 220 223 225 227 226 226 225 224 220 218 219 220 221 220 210 205 199 194 194 197 204 205 212 217 203 204 206 206 209 206 204 223 232 230
202 202 206 209 215 213 214 214 216 218 220 224 222 227 229 226 223 223 219 216 218 215 220 209 205 199 198 195 201 205 200 218 216 198 196 203 207 209 207 199 212 222 222
186 196 203 210 213 209 208 209 212 217 219 219 223 229 231 231 229 224 219 214 213 214 216 212 204 195 190 210 222 221 212 217 214 215 205 200 198 201 196 194 208 220 236
182 189 197 206 210 208 210 213 215 219 222 223 227 229 233 231 227 224 220 217 212 213 209 210 200 207 220 220 226 227 214 217 209 203 198 196 198 199 208 202 199 217 227
185 192 198 203 209 214 216 217 220 223 223 227 227 227 228 230 230 225 222 211 208 201 203 198 210 226 223 224 232 212 207 211 201 196 194 193 192 195 200 196 203 211 213
174 187 191 196 206 217 221 223 226 226 226 226 228 234 236 234 231 225 217 208 206 202 201 212 212 214 224 220 214 207 209 211 202 200 203 204 203 202 203 200 205 204 208
177 187 194 196 206 209 211 213 217 221 224 224 230 232 233 233 228 222 204 204 211 218 218 213 211 211 212 215 210 207 208 209 219 218 215 213 212 206 205 205 210 215 221
170 180 183 197 207 213 217 219 223 225 224 228 228 232 232 235 226 217 213 219 225 218 217 214 217 213 205 212 205 205 204 203 206 216 224 226 219 213 207 213 213 216 218
188 176 166 182 195 209 217 221 227 234 233 231 234 234 233 232 228 225 224 223 219 219 216 221 220 218 209 213 207 205 202 200 202 210 212 217 214 213 217 212 209 208 207
197 204 181 184 203 190 193 214 224 233 237 234 235 236 234 232 231 230 229 222 219 217 221 223 221 205 214 217 211 209 204 202 207 205 205 209 213 213 213 212 217 212 213
184 190 176 191 189 165 194 202 214 221 229 234 236 238 236 235 235 235 230 224 223 223 222 217 209 204 214 213 213 208 209 211 215 211 207 207 205 205 209 212 213 219 226
158 170 182 181 201 216 230 238 233 230 231 238 242 241 241 241 242 240 237 231 230 228 224 220 209 200 205 213 209 205 203 217 211 206 205 204 205 206 208 210 210 213 220
181 174 173 171 175 195 222 233 240 243 238 239 244 245 245 241 239 238 237 234 235 234 235 226 209 202 207 208 210 201 209 212 212 210 207 205 208 209 206 208 206 211 214
171 169 170 163 175 182 200 228 232 246 255 259 255 254 251 244 236 230 227 225 227 230 231 225 208 197 206 204 201 206 210 212 215 213 211 209 206 206 204 208 208 211 215
142 135 130 136 147 156 170 197 222 232 236 250 259 260 257 250 244 237 225 219 219 222 218 211 201 198 201 204 208 208 209 207 208 208 207 211 211 207 205 203 207 213 215
126 120 126 128 111 101 94 82 351 281 255 249 255 256 265 260 258 247 236 228 224 220 214 205 202 202 206 205 208 204 207 207 205 206 212 213 213 211 211 208 211 211 209
114 109 113 104 91 85 76 65 87 250 252 254 250 256 252 250 253 244 234 227 221 217 212 206 208 208 209 208 209 205 203 206 207 206 215 215 214 215 217 211 211 209 201
108 107 101 90 89 89 86 60 29 303 256 249 245 249 239 238 238 241 234 221 208 213 214 214 213 212 213 213 211 205 205 211 211 211 215 220 221 219 216 211 209 211 202
139 107 96 94 96 113 154 104 255 265 260 265 238 232 227 236 238 238 227 217 212 209 212 217 220 217 216 217 214 210 213 214 218 215 216 220 224 224 217 218 215 210 205
140 100 85 68 60 150 153 208 224 240 253 256 250 235 229 216 229 230 220 219 217 217 219 222 222 221 221 221 214 213 212 217 223 221 221 223 222 223 221 218 218 215 213
67 25 61 236 219 227 232 224 223 241 253 266 270 257 235 227 222 227 219 220 218 218 220 223 224 225 224 220 216 215 215 222 224 222 222 222 222 221 220 220 222 223 224
209 212 221 229 233 237 244 248 266 256 274 279 268 261 252 236 231 225 224 225 226 226 229 229 229 227 220 218 216 216 219 222 222 221 222 223 221 220 222 222 221 219 221
207 212 220 228 237 246 248 253 257 262 266 271 267 260 252 246 238 234 232 232 231 231 230 231 232 228 224 219 220 222 223 226 226 223 224 223 222 221 219 221 223 222 223
201 207 216 229 234 248 254 259 260 261 262 262 267 265 260 258 251 243 240 237 237 239 236 230 230 230 224 222 221 225 231 233 235 234 231 228 227 226 221 221 223 223 222
218 220 224 234 238 247 260 264 262 261 264 265 265 267 267 263 257 249 245 243 242 242 241 235 226 217 221 228 228 225 229 233 235 234 232 232 233 228 222 221 222 221 222
251 234 230 241 243 247 250 256 262 260 262 265 266 267 268 265 264 256 248 244 244 243 243 240 232 222 219 222 227 229 231 232 232 232 233 232 226 223 223 222 223 221 222